GFSSE_con_lsi_003.txt.gz
Lid_Strength_Index
0 -1 -1 -1 -1 -1 -1 -1 -1 -1 -1 -1 -1 -2 -2 -2 -2 -1 -1 -1 -2 -2 -2 -2 -1 -1 -1 -1 -1 -2 -2 -2 -2 -2 -2 -2 -1 -1 -1 -2 -2 -1 -2
-1 -1 -1 -1 -1 -1 -1 -1 -1 -2 -1 -1 -1 -2 -2 -2 -2 -1 -1 -1 -1 -2 -2 -2 -1 -1 -1 -1 -1 -2 -2 -1 -2 -2 -2 -1 -2 -1 -1 -2 -1 -1 -2
-0 -1 -1 -1 -1 -1 -1 -1 -2 -1 -1 -1 -1 -1 -2 -2 -1 -1 -1 -1 -1 -1 -1 -2 -1 -1 -1 -1 -1 -1 -2 -2 -2 -1 -2 -2 -1 -2 -1 -1 -2 -2 -2
-1 -1 -1 -1 -1 -1 -1 -1 -1 -1 -1 -1 -1 -1 -1 -1 -1 -1 -1 -1 -1 -2 -2 -2 -1 -1 -1 -1 -1 -1 -1 -2 -2 -2 -2 -2 -1 -1 -1 -1 -1 -1 -2
-1 -1 -1 -1 -1 -1 -1 -1 -1 -1 -1 -1 -1 -1 -1 -1 -1 -1 -1 -1 -1 -1 -1 -2 -1 -1 -1 -1 -1 -1 -2 -2 -1 -1 -1 -1 -1 -1 -1 -2 -1 -1 -2
-1 -1 -1 -1 -1 -1 -1 -1 -1 -1 -1 -1 -1 -1 -1 -1 -1 -1 -1 -1 -1 -1 -1 -1 -1 -1 -1 -1 -1 -1 -1 -1 -1 -1 -1 -1 -1 -1 -1 -1 -2 -2 -1
-0 -1 -1 -1 -1 -1 -1 -1 -2 -2 -1 -1 -1 -1 -1 -1 -1 -1 -1 -1 -1 -1 -1 -1 -1 -1 -1 -2 -1 -2 -1 -1 -1 -1 -1 -2 -2 -2 -1 -2 -2 -2 -2
-0 -1 -1 -1 -1 -1 -1 -1 -1 -1 -1 -1 -1 -1 -1 -1 -1 -1 -1 -1 -1 -1 -1 -1 -1 -1 -1 -1 -1 -1 -1 -1 -1 -1 -1 -1 -1 -2 -1 -2 -2 -1 -2
-1 -1 -1 -1 -1 -1 -1 -1 -1 -1 -1 -1 -1 -1 -1 -1 -1 -1 -1 -1 -1 -1 -1 -1 -1 -1 -1 -1 -1 -1 -0 -0 -1 -1 -1 -2 -1 -1 -2 -2 -2 -2 -2
-1 -1 -1 -1 -1 -1 -1 -1 -1 -1 -1 -1 -1 -1 -1 -1 -1 -1 -1 -1 -1 -1 -1 -1 -1 -1 -1 -1 -1 0 0 -1 -1 -1 -1 -2 -1 -1 -1 -1 -2 -2 -2
0 -0 -1 -1 -1 -1 -1 -1 -1 -1 -1 -1 -1 -1 -1 -2 -2 -1 -1 -1 -1 -1 -1 -1 -1 -1 -1 -1 -1 0 0 -1 -1 -1 -1 -1 -1 -1 -1 -1 -1 -2 -2
1 0 -0 -1 -0 -0 -0 -1 -2 -1 -2 -2 -2 -2 -2 -2 -2 -1 -1 -1 -1 -1 -1 -1 -1 -1 -1 -2 -2 -1 -2 -2 -2 -2 -2 -1 -1 -2 -2 -1 -2 -2 -2
1 0 -0 -0 -1 -1 0 -1 -1 -2 -2 -2 -1 -2 -2 -2 -2 -2 -2 -2 -2 -1 -2 -1 -2 -2 -1 -2 -2 -2 -2 -2 -2 -2 -1 -1 -1 -2 -2 -1 -1 -2 -2
1 1 -0 -1 -1 -1 -1 -1 -1 -1 -1 -1 -1 -2 -1 -1 -1 -1 -1 -1 -2 -2 -1 -2 -2 -1 -1 -1 -1 -1 -1 -1 -1 -2 -1 -1 -1 -1 -1 -1 -2 -1 -2
2 1 0 -1 -1 -1 -1 -1 -1 -1 -1 -1 -1 -2 -1 -1 -1 -1 -1 -1 -1 -2 -1 -1 -1 1 2 2 1 1 1 1 0 1 1 1 1 1 -0 -1 -0 -1 -2
1 1 0 -0 -1 -1 -0 -1 -1 -1 -1 -1 -1 -1 -1 -1 -1 -1 -1 -1 -1 -1 -1 -1 1 2 2 2 2 2 2 2 1 2 3 2 2 2 0 -1 -2 -1 -1
1 1 1 -0 -1 -1 -0 -1 -1 -1 -1 -1 -1 -2 -2 -2 -1 -1 -1 -1 -1 -1 -1 0 2 2 3 3 3 3 3 3 2 3 3 3 3 2 1 -0 -1 -2 -1
2 2 1 -0 -0 -0 -1 -1 -1 -1 -1 -1 -1 -1 -1 -1 -2 -1 -1 -1 -1 -1 -1 0 1 3 4 4 3 3 3 3 3 3 3 3 3 3 2 2 0 -0 -0
2 2 0 -0 -0 -0 -1 -1 -1 -1 -1 -1 -0 -0 -0 -1 -1 -1 -1 -1 -1 -1 -0 0 1 3 4 3 4 4 3 4 4 4 4 3 3 3 3 2 2 1 1
3 2 0 0 -0 -0 0 1 2 2 2 2 1 1 1 1 -0 -0 -0 -1 -0 1 1 1 2 3 3 3 4 4 3 3 3 3 4 4 3 3 3 2 2 2 2
3 1 1 1 1 2 3 3 3 3 3 3 3 3 2 2 1 1 0 -0 -0 1 1 1 2 3 3 3 4 4 4 3 3 3 3 3 4 3 2 2 3 4 4
2 2 3 4 4 4 4 4 4 4 3 4 3 3 2 2 2 2 1 1 0 1 0 0 1 2 3 3 4 4 6 5 4 4 3 3 3 3 3 4 4 5 5
4 4 5 4 4 4 4 4 3 3 3 4 4 3 3 2 2 2 2 2 1 1 1 0 0 1 3 2 3 4 6 7 5 4 4 4 3 4 4 5 5 5 5
5 4 3 4 4 4 4 4 5 5 6 4 4 4 3 3 2 2 2 2 2 1 1 1 0 0 1 2 3 4 3 4 6 6 5 5 4 5 5 4 5 5 5
4 4 4 4 4 4 5 5 4 4 4 4 4 4 4 3 2 3 3 3 3 2 2 1 1 1 1 1 2 3 5 5 5 7 8 6 6 6 5 5 5 5 5
4 4 4 4 4 3 4 4 4 4 4 4 4 4 4 4 4 4 4 4 4 3 3 3 3 3 3 3 4 4 4 6 6 7 8 8 7 6 5 5 4 4 3

GFSSE_con_lsi_006.txt.gz
Lid_Strength_Index
0 -1 -1 -1 -1 -1 -1 -2 -2 -1 -1 -1 -1 -1 -2 -1 -1 -1 -1 -1 -2 -2 -2 -2 -2 -1 -1 -1 -1 -1 -1 -2 -2 -1 -1 -1 -1 -1 -1 -1 -2 -1 -1
-1 -1 -1 -1 -1 -2 -2 -2 -2 -2 -1 -1 -1 -1 -2 -1 -1 -1 -1 -1 -1 -1 -2 -1 -1 -1 -1 -1 -1 -1 -1 -2 -2 -2 -2 -1 -1 -1 -1 -1 -2 -2 -2
-1 -1 -1 -1 -1 -2 -2 -2 -2 -1 -1 -1 -1 -1 -1 -1 -1 -1 -1 -1 -1 -1 -1 -1 -1 -1 -1 -1 -1 -1 -1 -1 -2 -2 -2 -2 -2 -1 -1 -1 -1 -2 -2
-1 -1 -1 -1 -1 -1 -1 -1 -1 -1 -1 -1 -1 -1 -1 -1 -1 -1 -1 -1 -1 -1 -2 -1 -1 -1 -1 -1 -1 -1 -1 -1 -2 -2 -2 -1 -1 -1 -1 -1 -1 -1 -1
-1 -1 -1 -1 -1 -1 -1 -1 -1 -1 -1 -1 -1 -1 -1 -1 -1 -1 -1 -1 -1 -1 -1 -2 -2 -1 -1 -1 -1 -1 -1 -2 -2 -1 -1 -2 -2 -1 -1 -1 -1 -2 -1
-1 -1 -1 -1 -1 -1 -1 -1 -1 -1 -1 -1 -1 -1 -1 -1 -1 -1 -1 -1 -1 -1 -1 -1 -1 -1 -1 -1 -1 -1 -1 -1 -1 -2 -1 -2 -1 -2 -1 -2 -2 -2 -1
-1 -1 -2 -1 -1 -1 -1 -1 -1 -1 -1 -1 -1 -1 -1 -1 -1 -1 -1 -1 -1 -1 -1 -1 -1 -1 -1 -1 -1 -1 -1 -1 -2 -1 -1 -1 -2 -1 -1 -1 -2 -2 -2
-1 -1 -2 -2 -1 -1 -1 -1 -1 -1 -1 -1 -1 -1 -1 -1 -1 -1 -1 -1 -1 -1 -1 -1 -1 -1 -1 -1 -1 -1 -1 -1 -1 -2 -1 -1 -1 -1 -1 -1 -1 -2 -2
-1 -1 -1 -2 -2 -1 -1 -1 -1 -1 -1 -1 -1 -1 -1 -1 -1 -1 -1 -1 -1 -1 -1 -1 -1 -1 -1 -1 -1 -0 -0 -0 -2 -2 -1 -2 -1 -1 -1 -1 -1 -1 -2
-1 -1 -1 -2 -1 -2 -2 -1 -1 -1 -1 -1 -1 -1 -1 -1 -1 -1 -1 -1 -1 -1 -1 -1 -1 -1 -1 -1 -1 -0 0 -1 -2 -2 -2 -2 -1 -1 -1 -1 -1 -1 -2
-0 -1 -1 -1 -1 -2 -2 -2 -2 -2 -1 -1 -1 -1 -1 -3 -2 -2 -1 -1 -1 -1 -1 -1 -1 -1 -1 -2 -2 -1 -1 -2 -2 -2 -2 -1 -1 -1 -1 -1 -1 -1 -2
1 -0 -1 -1 -1 -2 -2 -2 -2 -2 -2 -2 -2 -2 -2 -2 -2 -2 -2 -1 -1 -1 -1 -1 -1 -1 -1 -2 -2 -2 -2 -2 -2 -2 -2 -1 -1 -1 -1 -1 -1 -1 -1
0 -0 -1 -1 -1 -1 -2 -2 -2 -2 -2 -2 -2 -2 -2 -2 -2 -2 -2 -2 -2 -1 -2 -2 -2 -2 -2 -2 -1 -2 -2 -2 -2 -2 -1 -1 -1 -1 -1 -1 -1 -1 -1
0 0 -1 -1 -1 -1 -2 -2 -2 -2 -2 -2 -2 -2 -2 -1 -2 -2 -2 -2 -2 -2 -2 -2 -2 -2 -1 -0 -0 -0 -0 0 0 -1 -0 0 1 0 -0 -1 -1 -1 -1
1 0 -0 -1 -1 -1 -1 -2 -2 -2 -2 -2 -2 -2 -2 -2 -1 -2 -2 -2 -2 -2 -2 -2 -2 -1 1 1 1 1 1 1 1 1 0 2 1 1 -0 -1 -1 -1 -1
0 0 -0 -1 -1 -1 -1 -2 -2 -3 -2 -2 -2 -2 -2 -2 -2 -2 -2 -1 -1 -1 -2 -2 -1 -0 1 1 2 1 1 1 1 1 1 2 3 1 0 -0 -1 -1 -1
0 0 -0 -1 -1 -1 -1 -2 -2 -3 -2 -2 -2 -2 -2 -2 -2 -2 -1 -1 -1 -1 -2 -2 -2 -0 1 2 2 2 2 1 2 2 2 2 2 2 1 1 0 -0 -0
0 0 -0 -0 -1 -1 -2 -2 -2 -3 -3 -2 -2 -2 -2 -2 -2 -2 -1 -1 -1 -2 -1 -1 -1 -0 0 1 2 2 2 2 2 2 2 2 2 2 2 1 1 1 1
0 0 0 -1 -1 -1 -1 -2 -2 -2 -2 -1 -1 -1 -1 -1 -2 -2 -1 -1 -2 -1 -1 -1 -1 -1 0 1 1 1 1 1 2 2 2 2 2 2 2 2 2 2 2
0 -0 -0 -0 -0 -1 -2 -2 -1 -1 -1 -1 -0 0 0 0 -0 -1 -1 -2 -2 -1 -1 -1 -0 -1 -0 0 2 2 1 1 1 1 2 2 2 1 2 2 2 2 3
0 0 0 -0 0 -0 0 1 1 1 1 0 0 0 0 0 0 -0 0 -0 -1 -0 -1 -1 -0 0 0 -0 1 1 1 1 1 1 1 1 2 2 1 1 2 2 2
0 0 1 1 1 1 1 1 1 1 1 1 1 0 0 1 1 2 1 1 1 1 0 -0 -0 1 0 -0 2 2 3 2 1 1 1 1 1 1 2 2 3 3 3
1 1 1 1 2 1 1 1 1 0 1 1 2 2 2 2 2 2 1 1 1 1 1 0 0 0 1 0 -0 2 4 4 2 1 1 1 1 1 1 2 3 4 4
1 1 2 2 1 2 1 2 2 2 3 2 2 2 2 2 2 2 2 1 1 1 1 1 1 1 1 2 1 0 1 1 4 4 1 1 0 1 1 2 3 3 3
2 1 1 1 2 2 2 1 2 2 2 2 2 2 2 2 2 2 2 1 1 1 1 1 1 0 0 1 1 1 2 1 1 3 4 3 2 1 2 2 2 3 3
1 1 1 2 2 1 1 2 2 2 2 3 3 3 3 3 2 2 2 1 1 1 1 1 1 1 1 1 2 2 2 5 4 3 4 3 3 2 2 2 3 3 2

GFSSE_con_lsi_009.txt.gz
Lid_Strength_Index
0 -1 -1 -1 -1 -1 -1 -1 -1 -1 -1 -1 -1 -1 -1 -1 -1 -1 -1 -2 -2 -2 -2 -1 -2 -1 -1 -1 -1 -1 -2 -1 -2 -1 -1 -1 -1 -1 -1 -1 -2 -1 -1
-1 -1 -1 -1 -2 -1 -1 -1 -1 -1 -1 -1 -1 -1 -1 -1 -1 -1 -1 -1 -2 -2 -1 -1 -1 -1 -1 -1 -1 -1 -1 -1 -2 -2 -2 -2 -1 -1 -1 -1 -1 -1 -1
-0 -1 -1 -1 -1 -1 -1 -1 -1 -1 -1 -1 -1 -1 -1 -1 -1 -1 -1 -1 -1 -1 -1 -1 -1 -1 -1 -1 -1 -1 -1 -1 -2 -2 -2 -2 -1 -2 -1 -1 -1 -2 -2
-1 -1 -1 -1 -1 -1 -1 -1 -1 -1 -1 -1 -1 -1 -1 -1 -1 -1 -1 -1 -1 -1 -1 -1 -1 -1 -1 -1 -1 -1 -1 -1 -2 -2 -1 -1 -1 -2 -1 -1 -1 -1 -1
-1 -1 -1 -1 -1 -1 -1 -1 -1 -1 -1 -1 -1 -1 -1 -1 -1 -1 -1 -1 -1 -1 -1 -1 -1 -1 -1 -1 -1 -1 -1 -2 -2 -2 -1 -1 -1 -1 -1 -1 -1 -2 -2
-1 -1 -1 -1 -1 -1 -1 -1 -1 -1 -1 -1 -1 -1 -1 -1 -1 -1 -1 -1 -1 -1 -2 -2 -1 -1 -1 -1 -1 -1 -1 -1 -1 -1 -1 -1 -1 -2 -1 -1 -2 -2 -2
-1 -1 -1 -1 -2 -1 -1 -1 -1 -1 -1 -1 -1 -1 -1 -1 -1 -1 -1 -1 -1 -1 -1 -1 -1 -1 -1 -1 -1 -1 -1 -2 -1 -1 -1 -1 -1 -1 -1 -1 -1 -1 -2
-0 -1 -1 -2 -1 -1 -1 -1 -1 -1 -1 -1 -1 -1 -1 -1 -1 -1 -1 -1 -1 -1 -1 -1 -1 -1 -1 -1 -1 -1 -1 -1 -1 -1 -1 -1 -1 -1 -1 -1 -1 -1 -2
-1 -1 -1 -2 -2 -2 -2 -1 -1 -1 -1 -1 -1 -1 -1 -1 -1 -1 -1 -1 -1 -1 -1 -1 -1 -1 -1 -1 -1 -1 -1 -1 -1 -1 -1 -1 -1 -1 -1 -1 -1 -1 -2
-1 -1 -1 -1 -2 -2 -2 -2 -1 -1 -1 -1 -1 -1 -1 -1 -1 -2 -1 -1 -1 -1 -1 -1 -1 -1 -1 -1 -1 -1 -1 -1 -1 -1 -1 -0 -1 -1 -1 -1 -1 -1 -1
-0 -1 -1 -1 -1 -2 -2 -2 -2 -2 -2 -2 -1 -1 -1 -2 -2 -2 -1 -1 -1 -1 -1 -1 -1 -1 -1 -1 -2 -2 -3 -1 -1 -1 -1 -1 -1 -1 -1 -1 -1 -1 -2
1 -0 -1 -1 -1 -1 -1 -2 -2 -2 -2 -2 -2 -2 -2 -2 -2 -2 -1 -1 -1 -1 -1 -2 -1 -2 -2 -2 -1 -2 -1 -2 -1 -1 -1 -1 -1 -1 -1 -1 -1 -1 -1
0 0 -1 -1 -1 -1 -1 -2 -2 -2 -2 -2 -2 -2 -2 -2 -2 -2 -2 -2 -2 -1 -2 -1 -1 -1 -2 -1 -1 -1 -1 -1 -0 -0 -1 -1 -0 -1 -1 -1 -1 -1 -1
1 0 -1 -1 -1 -2 -1 -2 -2 -2 -2 -2 -2 -2 -2 -1 -2 -2 -1 -2 -2 -2 -2 -2 -1 -2 -2 -0 0 0 -0 0 1 1 1 1 2 1 -0 -1 -1 -1 -1
1 0 -0 -1 -1 -1 -2 -2 -2 -2 -2 -2 -2 -2 -2 -1 -1 -2 -2 -2 -1 -1 -1 -1 -1 -1 -1 0 1 1 1 1 1 1 1 1 2 1 0 -0 -1 -1 -1
0 0 -1 -1 -1 -1 -1 -1 -2 -2 -2 -2 -2 -2 -2 -2 -2 -1 -1 -1 -1 -1 -1 -1 -1 -1 -0 0 1 1 1 1 1 1 1 2 1 1 1 1 -0 -1 -1
0 0 -0 -1 -1 -1 -1 -1 -2 -2 -2 -2 -2 -2 -2 -2 -2 -2 -1 -1 -1 -2 -2 -2 -1 -1 -1 -0 0 1 1 1 1 1 1 2 2 1 1 1 0 0 0
0 0 -0 -0 -1 -1 -1 -1 -2 -2 -2 -2 -2 -2 -2 -2 -2 -2 -1 -1 -2 -2 -1 -1 -1 -0 -0 -0 -0 0 1 1 1 1 1 1 2 2 1 -0 0 1 1
0 0 -0 -0 -1 -1 -1 -1 -2 -2 -1 -1 -1 -1 -1 -1 -1 -1 -1 -1 -2 -1 -1 -1 -0 -0 0 0 0 -0 -0 0 -0 1 1 1 0 1 1 -0 0 1 1
1 0 -0 -0 -1 -1 -1 -1 -1 -1 -1 -1 -1 -0 -1 -1 -1 -1 -1 -1 -2 -0 -0 -0 -0 -0 0 0 1 1 -0 -0 -0 -0 0 1 1 0 1 1 2 2 1
1 1 0 0 -0 -1 -1 0 1 1 0 -0 -0 -0 -0 -0 0 0 1 0 -0 0 -0 -1 -0 0 1 0 1 1 1 0 -0 -0 -0 -0 0 0 -0 -0 1 1 2
1 0 1 1 1 0 0 1 0 -0 0 -0 -0 -0 0 0 1 1 1 1 1 1 -0 -0 -0 1 1 0 2 2 4 2 1 0 -0 0 -0 -0 0 -0 -0 0 1
1 0 0 0 1 1 1 1 1 0 0 1 1 1 0 1 1 1 1 1 1 0 1 -0 -0 0 2 1 0 2 4 5 3 1 1 0 0 -0 -0 -0 -0 1 1
1 1 1 1 1 1 1 1 1 2 2 1 1 1 1 1 2 2 2 1 1 1 0 0 1 0 0 2 1 0 1 2 4 5 2 1 1 1 -0 -0 -0 1 1
1 0 0 1 1 1 1 1 1 1 1 1 1 2 2 2 2 2 1 1 1 1 1 0 1 1 1 2 2 1 1 2 2 4 6 3 2 0 1 0 -0 0 1
0 0 0 1 1 1 1 1 1 2 2 3 2 3 3 2 2 1 2 1 1 1 1 1 1 1 2 2 2 2 3 4 5 5 6 4 3 2 1 1 1 1 1

GFSSE_con_lsi_012.txt.gz
Lid_Strength_Index
1 -0 -1 -1 -2 -2 -2 -1 -1 -1 -1 -1 -1 -1 -2 -2 -2 -2 -2 -2 -2 -2 -2 -2 -2 -1 -1 -1 -1 -1 -2 -2 -2 -2 -2 -2 -1 -1 -1 -2 -2 -1 -2
-0 -1 -1 -1 -2 -2 -2 -1 -1 -1 -1 -1 -1 -1 -2 -1 -1 -1 -1 -2 -2 -2 -2 -2 -2 -1 -1 -1 -1 -2 -1 -2 -2 -2 -2 -2 -2 -1 -1 -2 -2 -1 -1
0 -1 -1 -1 -1 -2 -2 -1 -1 -2 -2 -2 -2 -2 -1 -1 -1 -1 -1 -2 -2 -2 -2 -2 -2 -2 -2 -1 -1 -2 -2 -2 -2 -2 -2 -0 -0 -2 -2 -2 -2 -2 -1
-0 -1 -1 -1 -1 -1 -1 -1 -1 -2 -1 -2 -1 -1 -1 -1 -1 -1 -1 -1 -1 -2 -2 -2 -1 -2 -2 -1 -1 -1 -1 -2 -2 -2 -0 -0 -1 -2 -1 -2 -2 -2 -2
-0 -1 -1 -0 -1 -1 -1 -1 -1 -1 -1 -1 -1 -1 -1 -1 -1 -1 -1 -2 -1 -1 -1 -2 -1 -1 -1 -1 -2 -2 -1 -1 -2 -1 -0 -0 -1 -2 -2 -2 -2 -2 -2
-0 -1 -1 -1 -1 -1 -1 -1 -1 -1 -1 -1 -1 -1 -1 -1 -1 -1 -1 -1 -1 -1 -2 -1 -1 -1 -1 -1 -1 -1 -2 -2 -2 -0 0 -1 -1 -1 -2 -2 -2 -2 -2
0 -1 -1 -1 -1 -2 -2 -1 -2 -1 -1 -1 -1 -1 -1 -1 -1 -1 -1 -1 -1 -2 -2 -2 -1 -1 -1 -2 -1 -1 -1 -1 -1 0 -0 1 1 -1 -1 -1 -2 -2 -2
0 -0 -1 -2 -2 -2 -2 -2 -2 -1 -1 -1 -1 -1 -1 -1 -1 -1 -1 -1 -1 -1 -1 -2 -2 -2 -1 -1 -2 -2 -2 -2 -1 0 -0 0 -0 -0 -2 -2 -2 -2 -2
-0 -0 -1 -1 -2 -2 -2 -1 -1 -1 -1 -2 -2 -1 -1 -2 -2 -1 -1 -1 -1 -1 -1 -1 -1 -2 -2 -2 -2 -2 -2 -2 -0 0 -0 -0 -2 -1 -1 -1 -1 -2 -2
-0 -0 -0 -1 -1 -1 -1 -2 -2 -2 -2 -2 -2 -2 -2 -1 -2 -2 -2 -2 -1 -1 -1 -1 -2 -2 -2 -2 -2 -2 -3 -2 1 -0 -0 -0 -2 -1 -1 -1 -1 -1 -2
0 0 -0 -0 -1 -1 -1 -1 -2 -2 -2 -1 -1 -1 -0 -1 -1 -1 -1 -1 -1 -1 -1 -1 -2 -2 -2 -2 -2 -2 -2 0 0 0 -0 -2 -2 -1 -1 -1 -1 -1 -1
1 1 -0 -0 -1 -1 -1 -1 -1 -1 -1 -1 -1 -1 -1 -1 -1 -1 -1 -1 -2 -2 -2 -2 -2 -2 -2 -0 -0 -2 -0 -0 1 1 -0 -2 -2 -1 -1 -1 -1 -1 -1
1 1 0 -0 -1 -1 -1 -1 -1 -1 -1 -1 -1 -1 -1 -1 -1 -1 -1 -1 -1 -1 -1 -1 -0 -1 -0 0 1 1 1 1 1 2 -0 -1 -1 -1 -1 -1 -1 -1 -1
1 1 0 -0 -0 -1 -1 -1 -1 -1 -1 -1 -1 -1 -1 -0 -0 -0 -0 -0 -0 -1 0 0 0 -0 0 0 1 2 2 2 3 2 1 -0 0 1 1 -1 -2 -2 -1
2 1 0 -0 -0 -0 -1 -1 -1 -1 -1 -1 -1 -2 -1 -0 0 -0 0 -0 -0 -0 0 1 0 0 0 1 1 2 2 2 2 2 2 1 1 1 1 -0 -1 -2 -1
1 1 0 0 -0 -1 -0 -0 -0 -1 -1 -1 -1 -1 -1 -1 -0 0 0 0 0 0 0 1 1 0 1 1 1 1 2 2 2 2 2 3 1 0 -0 -0 -1 -1 -2
1 1 1 0 0 -0 -0 -0 -0 -1 -1 -0 -1 -1 -1 -1 -0 0 0 0 0 0 0 0 1 1 0 0 1 1 1 2 2 2 2 2 3 0 -0 -1 -1 -1 -1
-0 1 1 0 0 -0 -0 -0 -0 -1 -1 -1 -1 -1 -1 -1 -1 -0 0 0 -0 -0 0 0 1 1 1 1 1 1 2 2 2 2 2 2 2 3 1 -1 -1 -1 -1
1 1 1 0 0 0 -0 -0 -0 -1 -0 -0 -0 -1 -1 -1 -1 -0 0 0 -0 0 0 0 1 1 2 2 1 2 2 2 2 2 3 2 2 2 3 0 -1 -1 -1
1 1 1 0 1 -0 -0 -0 -0 -0 -0 -0 -0 0 -0 -0 -0 0 1 1 0 1 2 1 2 2 2 2 1 1 1 1 1 2 3 2 3 2 2 2 1 1 -0
1 1 1 1 0 0 1 1 1 1 0 0 0 0 0 0 1 1 2 2 2 3 2 2 3 3 3 2 2 3 2 1 1 1 1 2 3 2 3 3 2 3 2
1 1 1 2 2 1 1 1 1 1 1 1 -0 0 0 1 1 2 2 3 2 3 3 3 2 3 3 3 3 4 6 4 2 1 1 1 2 1 2 2 2 2 3
2 2 2 2 2 2 1 1 1 1 1 1 2 2 1 1 1 2 3 2 2 3 3 3 3 3 4 4 3 4 6 7 5 3 2 1 1 0 0 1 2 2 2
2 1 1 1 1 1 1 1 2 2 3 2 1 1 2 2 2 3 3 2 2 2 3 3 2 3 3 5 4 2 3 4 6 7 4 3 1 1 1 0 1 1 2
1 1 1 1 1 1 1 1 2 1 2 2 2 2 2 3 3 3 3 3 3 3 3 2 3 3 3 4 5 5 5 5 5 6 8 7 5 3 2 1 1 0 1
1 1 1 1 1 1 1 1 2 3 3 3 3 4 4 4 4 3 3 3 2 3 3 3 3 4 4 4 4 4 5 5 6 6 7 7 8 6 4 3 1 2 2

GFSSE_con_lsi_015.txt.gz
Lid_Strength_Index
1 -0 -1 -1 -1 -1 -1 -1 -1 -1 -1 -1 -1 -1 -2 -2 -2 -2 -2 -2 -2 -2 -2 -2 -1 -1 -1 -1 -1 -1 -1 -2 -2 -2 -2 -2 -1 -2 -2 -2 -2 -1 -1
-0 -0 -1 -1 -1 -1 -1 -1 -1 -1 -1 -1 -1 -1 -2 -2 -2 -2 -2 -2 -2 -2 -2 -2 -2 -2 -2 -1 -1 -1 -1 -2 -2 -2 -2 -2 -2 -2 -3 -2 -2 -1 -1
0 -0 -1 -1 -1 -1 -1 -1 -1 -2 -2 -1 -1 -1 -1 -1 -1 -2 -2 -2 -2 -2 -2 -2 -2 -2 -2 -2 -1 -1 -1 -1 -2 -2 -2 -0 0 -2 -2 -2 -2 -1 -1
-0 -0 -1 -1 -1 -1 -1 -1 -1 -2 -1 -2 -1 -1 -1 -1 -2 -2 -1 -2 -2 -2 -2 -2 -2 -2 -2 -1 -1 -1 -1 -1 -2 -2 -0 -1 -1 -2 -2 -2 -2 -2 -2
-0 -0 -1 -0 -1 -1 -1 -1 -1 -1 -1 -1 -2 -1 -1 -2 -2 -2 -1 -2 -2 -2 -2 -2 -2 -2 -1 -1 -1 -1 -1 -2 -2 -1 0 -0 -1 -1 -1 -1 -2 -2 -1
1 0 0 -0 -1 -1 -1 -1 -1 -2 -1 -1 -1 -1 -1 -2 -2 -1 -1 -1 -1 -2 -2 -2 -2 -1 -1 -2 -1 -1 -2 -2 -1 0 1 -0 -1 -1 -1 -1 -1 -2 -2
1 -0 -0 -0 -1 -1 -1 -1 -2 -2 -1 -2 -2 -1 -1 -2 -2 -1 -1 -1 -1 -1 -1 -2 -2 -2 -2 -2 -2 -2 -2 -2 -1 1 1 2 1 -2 -2 -2 -2 -2 -1
0 0 -0 -1 -1 -1 -2 -2 -2 -2 -2 -2 -2 -2 -1 -1 -2 -1 -1 -1 -1 -1 -1 -2 -2 -2 -2 -3 -3 -3 -2 -2 -0 2 0 1 0 -1 -2 -1 -1 -2 -2
0 0 1 -0 -1 -2 -1 -1 -1 -2 -2 -2 -2 -2 -2 -2 -2 -2 -2 -2 -2 -2 -2 -2 -2 -3 -3 -3 -3 -2 -2 -2 1 1 -0 1 -1 -1 -1 -1 -2 -1 -2
1 1 1 0 0 -0 -0 -1 -1 -2 -2 -2 -2 -2 -1 -1 -2 -2 -2 -2 -2 -2 -2 -2 -2 -2 -2 -2 -2 -2 -2 -1 2 1 0 0 -1 -1 -1 -1 -1 -1 -1
1 1 1 1 1 0 -0 -1 -2 -2 -2 -1 -1 -1 -1 -0 -1 -1 -1 -1 -2 -2 -2 -2 -2 -2 -2 -2 -2 -3 -2 -0 1 1 0 -1 -2 -1 -1 -1 -1 -1 -1
2 1 1 2 1 0 -1 -0 -0 -1 -1 -0 -0 -0 0 0 0 -0 -1 -1 -2 -2 -2 -2 -2 -2 -2 0 1 -1 1 1 2 1 0 -2 -2 -1 -1 -1 -1 -1 -1
2 1 1 1 1 1 1 1 0 0 0 0 0 1 1 0 0 1 1 0 1 -1 0 -0 -0 -0 0 1 2 3 3 3 3 3 -0 -2 -2 -1 -1 -1 -1 -1 -2
2 1 1 1 1 1 1 1 1 1 1 1 1 1 1 1 1 1 1 1 1 1 1 1 2 2 1 1 2 3 3 3 3 4 2 -1 -1 -0 0 -0 -1 -2 -2
3 2 2 1 0 1 1 1 1 1 2 1 1 0 1 1 1 1 1 1 1 1 2 2 2 2 1 1 1 2 3 3 3 3 4 0 -0 -1 -0 -0 -1 -1 -2
2 1 2 1 1 0 1 1 1 2 1 1 1 1 0 1 1 1 1 1 1 1 1 1 2 2 2 1 2 2 2 3 3 3 3 3 0 -0 -1 -1 -1 -2 -2
2 1 1 0 -0 1 2 1 2 3 1 1 1 1 0 1 1 1 1 1 1 1 1 1 1 2 2 2 2 2 2 3 3 3 3 3 3 0 -1 -2 -2 -2 -2
1 1 1 -0 0 0 1 1 1 1 2 1 1 1 1 1 1 2 2 2 1 1 2 2 2 2 3 3 3 3 3 3 3 3 3 3 4 3 1 -1 -2 -2 -2
2 2 2 1 1 1 1 2 2 2 2 2 2 2 2 2 2 3 3 3 2 3 3 3 3 4 4 4 3 3 3 3 3 2 3 3 4 3 4 1 -1 -2 -2
3 1 1 1 1 1 2 3 3 3 2 2 3 3 2 3 2 3 4 4 4 4 4 4 5 5 5 5 3 3 4 3 2 2 2 2 3 3 3 4 2 1 -1
3 4 4 3 4 4 4 4 4 4 3 3 3 2 3 3 3 3 4 4 4 4 5 5 5 5 5 5 6 5 5 4 4 4 3 3 3 3 3 3 3 3 2
5 5 4 5 4 4 4 4 4 3 3 3 3 2 2 3 3 3 5 5 5 5 5 5 6 6 6 5 6 7 8 7 6 4 4 3 3 2 2 1 2 2 3
5 6 4 4 4 4 4 4 4 4 4 3 3 3 3 4 4 5 5 5 5 5 5 6 5 5 6 5 5 6 8 9 8 5 5 4 5 4 3 2 1 1 2
4 4 4 3 4 3 4 4 4 4 4 4 4 5 5 5 5 4 4 5 5 5 5 5 3 5 5 6 6 4 6 6 8 10 7 6 5 5 5 3 3 1 0
4 4 4 4 3 3 3 4 4 5 5 4 5 6 6 5 5 5 4 5 5 4 5 5 5 6 6 6 6 5 5 7 8 9 10 9 7 6 5 5 3 2 1
4 4 4 3 3 3 3 4 5 5 5 6 6 6 6 6 5 5 5 5 5 5 5 5 4 5 4 5 5 5 6 6 6 7 9 8 8 8 6 5 4 3 2

GFSSE_con_lsi_021.txt.gz
Lid_Strength_Index
1 -0 -1 -1 -1 -1 -1 -1 -1 -1 -1 -1 -1 -1 -1 -1 -1 -1 -1 -2 -2 -2 -2 -2 -2 -2 -2 -2 -1 -1 -1 -1 -1 -1 -1 -1 -1 -1 -1 -2 -2 -1 -2
-0 -0 -1 -1 -1 -1 -1 -1 -1 -1 -1 -1 -1 -1 -1 -1 -1 -1 -2 -2 -2 -2 -2 -2 -2 -2 -2 -2 -1 -1 -1 -1 -1 -1 -1 -1 -1 -1 -1 -2 -2 -1 -1
0 -0 -1 -1 -1 -1 -1 -1 -1 -1 -1 -1 -1 -1 -1 -2 -2 -1 -1 -2 -2 -2 -2 -2 -2 -2 -2 -2 -1 -1 -1 -1 -1 -1 -1 0 0 -1 -1 -2 -2 -1 -1
-0 -0 -0 -1 -1 -1 -1 -1 -1 -1 -1 -1 -1 -1 -2 -2 -1 -2 -2 -2 -2 -2 -2 -2 -2 -2 -2 -2 -2 -2 -1 -1 -1 -1 0 -0 -0 -1 -1 -2 -2 -1 -1
-0 -0 -1 -1 -1 -1 -1 -1 -1 -1 -1 -1 -1 -2 -2 -1 -2 -2 -2 -2 -2 -2 -2 -2 -2 -2 -2 -2 -2 -2 -2 -1 -1 -0 1 0 -0 -1 -1 -1 -1 -1 -2
0 -0 0 -0 -1 -1 -1 -1 -1 -1 -1 -1 -2 -1 -2 -2 -2 -2 -2 -2 -2 -2 -2 -2 -2 -2 -2 -2 -2 -2 -2 -2 -1 2 1 -0 -0 -1 -1 -1 -1 -1 -2
0 -0 -0 0 -1 -1 -1 -1 -1 -1 -2 -2 -2 -1 -1 -1 -1 -1 -1 -2 -2 -2 -2 -2 -2 -2 -2 -3 -2 -2 -2 -2 1 3 2 1 1 -1 -1 -1 -1 -2 -2
0 0 -0 -1 -1 -1 -1 -1 -1 -1 -2 -2 -2 -2 -1 -2 -2 -1 -2 -2 -2 -2 -2 -2 -2 -2 -2 -3 -3 -2 -2 -2 1 3 1 2 1 -2 -2 -1 -2 -2 -2
1 1 1 0 -0 -1 -1 -1 -1 -1 -2 -2 -2 -2 -2 -2 -2 -2 -2 -2 -2 -2 -2 -3 -2 -2 -3 -2 -3 -3 -2 -2 3 1 1 1 -0 -1 -1 -2 -2 -2 -2
2 0 1 1 1 1 0 -1 -1 -1 -2 -2 -2 -2 -2 -2 -2 -2 -2 -2 -2 -2 -2 -3 -2 -2 -2 -2 -2 -2 -2 -0 3 1 0 0 -2 -2 -2 -2 -2 -2 -2
1 1 1 1 1 1 0 -1 -1 -2 -2 -1 -1 -1 -1 -0 -0 -0 -1 -2 -2 -2 -2 -2 -2 -2 -1 -1 -2 -2 0 3 4 3 1 -1 -2 -2 -2 -2 -2 -2 -1
2 2 0 0 0 0 -1 -0 0 -1 -0 0 0 0 0 1 1 -0 -1 -1 -2 -2 -2 -2 -2 -2 -1 0 1 0 4 4 4 4 3 -2 -2 -2 -2 -2 -2 -2 -2
3 2 1 1 1 1 1 0 1 0 1 1 1 1 1 1 1 1 1 0 1 0 1 1 1 2 2 2 2 2 3 4 4 4 2 -2 -3 -2 -2 -2 -3 -2 -2
3 2 2 1 1 2 1 1 1 1 1 1 1 1 2 3 3 2 2 2 2 2 2 3 3 2 2 2 2 2 2 3 4 4 3 -1 -2 -2 -2 -2 -2 -2 -3
3 2 2 1 1 2 2 2 1 1 1 1 2 1 2 3 3 2 2 2 2 2 3 3 3 3 3 3 3 3 2 3 3 4 4 1 -0 -2 -2 -3 -3 -3 -3
2 2 3 2 2 2 2 2 2 2 2 2 2 2 1 2 2 2 3 4 4 3 3 4 4 4 5 4 4 4 4 3 3 3 4 4 1 -0 -1 -2 -3 -3 -3
2 2 3 2 2 2 3 3 3 3 2 3 2 2 1 2 3 4 4 5 4 4 5 5 5 5 6 5 5 5 4 4 4 4 4 4 4 2 0 -1 -1 -2 -3
2 3 1 1 1 2 2 3 3 3 4 3 2 3 3 3 4 5 5 5 5 5 5 5 6 6 6 6 6 6 5 5 4 4 4 4 4 4 3 1 0 -1 -2
3 2 2 1 1 1 2 2 4 4 4 4 4 5 4 4 4 5 5 5 5 5 5 5 6 6 7 7 5 5 6 5 5 4 5 4 4 4 5 4 3 2 1
3 2 2 1 2 3 4 5 4 5 5 5 5 5 5 4 5 5 5 5 5 6 6 6 7 6 7 6 5 5 6 5 6 6 6 5 5 5 6 6 6 5 3
5 4 3 3 4 5 5 5 5 6 5 4 4 5 5 5 5 6 6 6 6 6 7 7 7 7 6 6 7 6 7 7 7 7 7 6 6 6 7 6 6 6 6
5 5 6 6 6 6 5 5 4 3 3 4 5 5 5 5 5 5 6 6 6 6 6 6 7 7 6 6 7 8 9 8 7 6 7 7 8 7 7 7 6 7 6
7 7 6 5 5 4 4 4 4 4 4 5 6 7 6 6 6 6 6 6 6 6 7 7 7 7 8 7 7 8 10 11 8 8 6 7 7 8 7 7 6 7 5
7 7 6 5 5 4 4 5 5 5 6 6 7 7 7 6 6 5 6 6 7 7 7 7 6 7 8 8 7 5 7 7 10 11 9 7 7 7 7 7 7 7 5
7 6 6 5 5 5 5 5 5 6 6 7 7 7 6 6 6 5 6 7 8 7 8 8 7 7 7 7 7 7 7 8 8 9 10 9 7 7 7 7 7 6 5
6 6 6 5 5 5 5 6 6 7 7 7 7 6 6 6 6 7 7 7 7 8 7 7 7 7 7 7 7 7 5 6 6 6 8 8 7 6 7 6 6 6 6

GFSSE_con_lsi_024.txt.gz
Lid_Strength_Index
1 0 -1 -1 -1 -1 -1 -1 -1 -1 -2 -1 -1 -1 -2 -2 -1 -2 -2 -2 -2 -2 -2 -2 -2 -2 -2 -2 -2 -2 -1 -1 -1 -1 -1 -1 -1 -1 -2 -2 -2 -1 -1
-0 -0 -0 -1 -1 -1 -1 -1 -1 -1 -1 -1 -1 -1 -1 -2 -2 -2 -2 -2 -2 -2 -2 -2 -2 -2 -2 -2 -2 -2 -2 -1 -1 -1 -1 -1 -1 -1 -2 -2 -2 -1 -1
0 -0 -0 -1 -1 -1 -1 -1 -2 -1 -1 -1 -1 -1 -2 -2 -2 -2 -2 -2 -2 -2 -2 -2 -2 -2 -2 -2 -2 -2 -2 -1 -1 -1 -1 -0 -0 -1 -1 -2 -2 -1 -1
-0 -0 -0 -1 -1 -1 -1 -1 -1 -1 -1 -1 -1 -2 -2 -2 -2 -2 -2 -2 -2 -2 -2 -2 -2 -2 -2 -2 -2 -2 -2 -2 -1 -1 0 -0 -1 -1 -2 -2 -1 -1 -1
-0 -0 -0 -0 -1 -1 -1 -1 -1 -1 -1 -1 -2 -1 -2 -2 -2 -2 -2 -2 -2 -2 -2 -2 -2 -2 -2 -2 -2 -2 -2 -2 -1 1 1 0 -0 -1 -1 -1 -1 -1 -2
0 0 0 -0 -1 -1 -1 -1 -1 -1 -1 -2 -2 -2 -2 -2 -2 -2 -2 -2 -2 -2 -2 -2 -2 -2 -2 -2 -2 -2 -2 -2 0 3 2 1 -0 -1 -1 -2 -2 -2 -2
-0 -0 -0 -0 -1 -1 -1 -1 -1 -1 -2 -2 -2 -2 -2 -2 -2 -2 -2 -2 -2 -2 -2 -2 -2 -2 -2 -3 -2 -2 -3 -2 1 3 2 1 1 -2 -2 -2 -2 -2 -2
0 -0 -0 -1 -1 -1 -1 -1 -1 -1 -2 -2 -2 -2 -2 -2 -2 -2 -2 -2 -2 -2 -2 -2 -2 -2 -3 -3 -3 -3 -3 -2 0 0 1 1 -1 -2 -2 -2 -2 -2 -2
0 0 -0 0 -0 -1 -1 -1 -1 -2 -2 -2 -2 -2 -2 -2 -2 -2 -2 -2 -2 -3 -3 -2 -3 -2 -2 -3 -3 -3 -2 -2 3 -0 -1 -0 -1 -2 -2 -2 -2 -2 -2
2 2 2 1 1 1 1 -1 -1 -1 -1 -2 -2 -2 -1 -2 -2 -2 -2 -2 -3 -2 -2 -2 -2 -2 -2 -2 -2 -2 -1 1 4 3 1 -0 -2 -2 -2 -2 -2 -2 -2
3 3 2 1 1 1 1 -0 -1 -2 -2 -2 -1 -1 -1 0 0 -0 -1 -2 -2 -2 -2 -2 -2 -3 -2 -1 -2 -2 0 4 4 4 3 -1 -3 -2 -2 -2 -2 -2 -2
3 2 1 1 1 1 -1 0 0 -0 -0 -0 -0 0 0 1 1 -0 -1 -1 -2 -2 -2 -2 -2 -1 0 2 2 1 3 3 4 4 4 -1 -2 -2 -2 -3 -3 -2 -2
2 1 0 0 0 0 0 0 1 0 1 1 1 1 1 1 1 1 2 2 2 0 2 2 2 3 2 2 2 2 2 2 3 3 3 -0 -1 -2 -2 -2 -3 -3 -3
2 2 1 1 1 1 1 1 1 1 1 1 1 1 1 3 3 3 3 2 2 3 3 3 3 3 4 3 3 3 3 3 3 3 3 -0 -1 -2 -2 -2 -2 -3 -3
4 3 3 2 2 2 2 2 2 2 1 1 2 2 2 3 3 2 3 3 4 4 4 4 4 5 5 4 4 4 4 4 3 3 3 1 0 -1 -2 -2 -2 -2 -3
3 3 3 2 2 2 3 2 2 2 2 2 4 3 2 3 3 3 4 5 5 5 5 5 5 6 6 6 6 5 4 4 4 4 3 3 1 1 -0 -1 -1 -2 -2
3 3 3 2 2 2 3 2 2 3 2 4 4 3 2 3 5 5 5 5 5 5 5 6 6 6 6 5 6 5 4 4 4 4 4 3 3 2 1 1 1 0 -1
3 2 2 1 2 2 2 2 4 3 4 5 5 4 4 4 5 6 6 6 5 5 6 6 6 6 7 7 6 6 5 5 5 4 4 4 4 5 5 3 3 2 2
2 2 2 2 2 2 2 3 4 5 4 5 6 6 5 5 5 6 5 6 5 6 6 6 7 7 7 7 5 5 6 6 5 5 5 5 5 6 6 5 4 4 4
2 2 2 2 2 3 4 4 4 5 6 5 5 4 6 4 5 5 5 6 6 7 7 7 7 7 7 6 5 5 6 6 6 7 6 5 6 6 6 6 6 6 5
2 2 2 2 2 5 5 6 6 6 5 4 5 5 5 5 6 7 7 6 6 7 7 7 7 7 7 7 7 7 7 6 7 7 7 6 7 6 6 7 7 6 7
4 3 4 4 4 5 5 5 5 4 4 5 6 7 7 7 6 6 7 7 7 7 7 7 7 7 7 7 8 8 10 9 7 7 7 6 7 7 6 6 7 7 7
7 7 6 5 5 4 4 4 5 5 5 7 8 8 7 6 6 6 6 6 7 7 7 8 8 8 9 8 7 8 11 12 10 8 7 7 7 7 6 6 6 6 6
8 7 6 6 6 5 5 5 6 6 6 7 8 8 7 6 6 6 6 6 7 7 8 8 7 8 8 9 8 6 7 8 10 11 8 7 6 6 6 6 6 5 5
7 8 7 6 6 5 5 5 6 7 8 8 8 7 6 6 6 6 7 8 8 8 8 8 8 8 8 8 9 8 8 7 7 8 10 8 6 5 5 5 5 5 5
7 7 6 6 6 5 6 6 6 7 7 8 8 7 7 7 7 8 7 8 8 8 8 8 8 8 8 8 8 8 8 7 8 7 8 7 6 5 4 3 4 4 4

GFSSE_con_lsi_027.txt.gz
Lid_Strength_Index
0 -1 -1 -1 -1 -1 -1 -1 -1 -1 -2 -2 -1 -1 -1 -2 -2 -2 -2 -2 -2 -2 -2 -2 -2 -2 -2 -2 -2 -2 -2 -2 -1 -1 -1 -1 -1 -2 -2 -2 -2 -1 -1
-0 -1 -1 -1 -1 -1 -1 -1 -1 -2 -2 -2 -2 -1 -2 -2 -2 -2 -2 -3 -3 -2 -2 -2 -2 -2 -2 -2 -2 -2 -2 -2 -1 -1 -1 -2 -1 -1 -2 -1 -2 -1 -1
-0 -1 -1 -1 -1 -1 -1 -1 -2 -1 -2 -2 -2 -2 -2 -2 -2 -2 -2 -3 -3 -2 -2 -2 -3 -2 -2 -2 -2 -2 -2 -2 -1 -1 -1 -2 -1 -2 -2 -2 -2 -2 -1
-1 -1 -1 -1 -1 -1 -1 -1 -2 -2 -1 -2 -2 -2 -2 -2 -2 -2 -2 -3 -3 -2 -2 -3 -3 -2 -2 -2 -2 -2 -2 -2 -1 -1 -2 -1 -1 -2 -2 -2 -2 -2 -2
-1 -1 -1 -1 -1 -1 -1 -2 -1 -2 -2 -2 -2 -2 -2 -2 -2 -2 -2 -3 -3 -2 -2 -2 -2 -2 -2 -2 -2 -2 -2 -2 -0 -1 -1 -2 -2 -1 -2 -2 -2 -2 -2
-1 -1 -1 -0 -1 -1 -1 -1 -2 -1 -2 -2 -2 -2 -2 -2 -2 -2 -2 -3 -2 -2 -2 -2 -2 -2 -2 -3 -3 -2 -3 -2 -2 -2 -2 -2 -2 -2 -2 -2 -2 -2 -2
-0 -1 -1 0 -1 -1 -1 -1 -1 -2 -2 -2 -2 -2 -2 -2 -2 -2 -3 -3 -2 -2 -2 -2 -2 -2 -2 -3 -4 -3 -3 -2 -2 -2 -2 -2 -2 -1 -2 -2 -2 -2 -2
-0 -1 -1 -1 -1 -1 -1 -1 -2 -2 -2 -2 -2 -2 -2 -2 -2 -2 -2 -3 -2 -2 -2 -2 -2 -2 -2 -2 -2 -3 -2 -2 -0 -1 -2 -2 -2 -2 -2 -2 -2 -2 -2
-1 -0 -1 -1 -1 -0 -0 -1 -1 -1 -2 -2 -2 -2 -2 -3 -3 -3 -2 -2 -2 -2 -2 -2 -2 -3 -2 -2 -2 -3 -1 -1 -0 -0 -0 -1 -2 -2 -2 -2 -2 -2 -2
1 0 -0 -1 -1 -1 -1 -1 -1 -1 -1 -2 -2 -2 -2 -2 -2 -2 -2 -2 -2 -2 -2 -2 -4 -3 -3 -3 -3 -2 -1 -1 -1 -0 -0 -0 -2 -2 -2 -2 -2 -2 -2
1 1 -0 -1 -1 -1 -1 -1 -1 -2 -2 -1 -2 -2 -1 -2 -2 -2 -2 -2 -2 -2 -2 -3 -2 -2 -1 -2 -2 -1 -1 -1 -1 -1 -0 -0 -2 -2 -2 -3 -3 -2 -2
1 0 -0 -1 -1 -1 -1 -2 -2 -1 -2 -2 -1 -2 -2 -2 -2 -2 -2 -1 -1 -1 -2 -2 -1 -1 -1 -0 -0 -1 -0 -1 -1 -1 -1 -1 -2 -2 -2 -2 -3 -3 -3
1 0 -0 -1 -1 -1 -1 -1 -1 -2 -2 -2 -2 -2 -2 -2 -2 -2 -2 -1 -2 -1 -1 -1 -0 0 0 1 1 0 0 0 -0 -0 -0 -1 -1 -2 -2 -2 -2 -3 -3
1 1 -0 -1 -1 -1 -1 -1 -1 -1 -1 -1 -2 -2 -2 -1 -1 -2 -2 -1 -1 -1 -0 0 1 1 1 2 2 2 1 1 1 1 1 0 -0 -1 -2 -2 -2 -2 -2
1 1 0 -1 -1 -1 -1 -1 -1 -1 -1 -2 -2 -1 -1 -1 -1 -1 -0 0 1 0 1 1 1 2 2 2 2 3 2 2 1 1 1 0 -0 -1 -2 -2 -2 -2 -2
1 1 0 -0 -1 -1 -0 -1 -1 -1 -1 -0 0 -0 -1 -1 -1 1 1 1 1 1 1 2 2 2 3 3 3 2 2 1 1 1 1 0 1 1 1 -0 -1 -1 -1
1 1 1 0 -0 -0 0 0 1 1 1 1 1 0 -0 1 1 1 2 2 2 1 2 2 2 3 3 3 2 2 2 2 2 1 1 1 1 3 3 2 2 1 1
1 1 -0 0 0 1 1 2 3 2 1 2 2 2 2 2 1 2 3 2 2 3 4 3 3 3 3 3 3 3 2 3 2 2 2 2 2 3 3 3 3 3 3
1 1 1 0 0 1 2 3 4 2 3 3 3 2 2 3 2 3 3 3 3 3 3 3 3 3 4 4 4 3 4 3 2 3 3 3 3 3 4 4 4 4 4
1 0 0 -0 1 3 3 3 3 3 4 3 3 3 3 3 2 3 3 3 2 3 3 3 4 4 4 4 5 4 4 3 2 3 4 4 4 4 4 4 4 5 5
1 1 0 2 2 3 3 4 3 3 3 3 3 2 3 3 3 3 3 3 3 4 4 4 4 5 5 4 5 5 4 2 2 3 3 3 4 4 4 4 5 5 5
1 1 1 1 3 3 2 1 0 1 2 3 3 4 4 3 3 3 3 3 3 4 4 4 4 5 4 4 6 6 8 6 3 4 4 4 4 3 4 4 4 5 5
2 1 1 1 2 1 1 1 2 3 4 4 4 4 4 3 3 3 3 3 3 3 4 4 4 5 6 5 4 6 8 9 7 6 5 4 4 4 4 4 3 4 3
4 3 3 3 2 2 2 2 2 2 2 3 3 3 3 4 4 3 3 4 4 4 5 5 4 5 5 7 6 5 6 7 10 10 7 6 5 5 4 3 3 3 2
4 3 3 3 3 3 3 3 2 3 4 4 3 4 3 3 4 4 4 4 4 4 4 5 5 5 5 6 7 7 7 7 6 8 9 7 5 4 3 3 2 1 1
4 3 3 4 4 3 3 2 3 3 3 3 3 3 3 3 3 4 5 4 4 4 5 5 5 5 5 5 5 6 7 7 7 7 7 6 6 4 3 2 2 0 0